DW8913 Weather Reports


time (UTC)temp
F
wind
direction
speed
knots
gust
knots
rain 1hr
in
rain 24hr
in
rain mn
in
humidity
%
barometer
mb
20260506184519 65 110 2.6 7.8 0.00 0.00 0.00 79 1008.9
20260506183105 63 104 1.7 7.8 0.00 0.00 0.00 82 1009.1
20260506181538 61 63 1.7 7.8 0.00 0.00 0.00 83 1009.3
20260506180010 62 146 2.6 8.7 0.00 0.00 0.00 83 1009.3
20260506174545 62 155 0.9 7.8 0.00 0.00 0.00 84 1009.5
20260506173012 62 204 1.7 7.0 0.00 0.00 0.00 83 1009.4
20260506171554 62 128 3.5 7.8 0.00 0.00 0.00 81 1009.8
20260506170018 62 124 2.6 7.8 0.00 0.00 0.00 81 1010.0
20260506164603 62 94 3.5 8.7 0.00 0.00 0.00 81 1010.5
20260506163041 62 75 2.6 7.0 0.00 0.00 0.00 81 1010.8
20260506161514 62 88 2.6 5.2 0.00 0.00 0.00 81 1010.7
20260506160023 62 58 1.7 7.8 0.00 0.00 0.00 81 1010.9
20260506154522 62 196 2.6 9.6 0.00 0.00 0.00 81 1011.1
20260506153021 63 98 2.6 9.6 0.00 0.00 0.00 78 1011.3
20260506151502 64 70 2.6 8.7 0.00 0.00 0.00 77 1011.1
20260506150050 65 91 2.6 7.8 0.00 0.00 0.00 76 1011.1
20260506144519 65 98 2.6 9.6 0.00 0.00 0.00 77 1011.3
20260506143109 65 162 3.5 8.7 0.00 0.00 0.00 76 1011.4
20260506141537 64 56 1.7 7.0 0.00 0.00 0.00 78 1011.4
20260506140009 64 63 2.6 7.8 0.00 0.00 0.00 77 1011.3
20260506134550 63 196 2.6 7.8 0.00 0.00 0.00 79 1011.5
20260506133024 63 160 2.6 7.0 0.00 0.00 0.00 79 1011.6
20260506131603 63 109 1.7 7.8 0.00 0.00 0.00 79 1011.6
20260506130034 64 112 2.6 8.7 0.00 0.00 0.00 79 1011.9
20260506124609 64 152 3.5 10.4 0.00 0.00 0.00 78 1011.5
20260506123035 62 86 2.6 8.7 0.00 0.00 0.00 81 1011.6
20260506121513 60 130 3.5 7.8 0.00 0.00 0.00 85 1011.5
20260506120048 60 59 1.7 10.4 0.00 0.00 0.00 85 1011.3
20260506114517 60 15 1.7 6.1 0.00 0.00 0.00 88 1011.4
20260506113059 59 114 2.6 7.0 0.00 0.00 0.00 88 1011.4
20260506111528 58 163 1.7 6.1 0.00 0.00 0.00 89 1011.3
20260506110108 58 79 1.7 7.8 0.00 0.00 0.00 90 1011.6
20260506104539 58 176 3.5 8.7 0.00 0.00 0.00 90 1011.6
20260506103010 57 55 2.6 7.0 0.00 0.00 0.00 90 1011.5
20260506101538 57 141 1.7 7.0 0.00 0.00 0.00 90 1011.3
20260506100013 57 69 2.6 9.6 0.00 0.00 0.00 90 1011.3
20260506094604 57 111 2.6 7.0 0.00 0.00 0.00 90 1011.3
20260506093023 57 117 1.7 7.8 0.00 0.00 0.00 90 1011.3
20260506091608 57 143 2.6 7.8 0.00 0.00 0.00 90 1011.4
20260506090046 57 98 2.6 12.2 0.00 0.00 0.00 90 1011.5
20260506084502 57 127 2.6 8.7 0.00 0.00 0.00 90 1011.7
20260506083043 57 77 2.6 7.8 0.00 0.00 0.00 90 1011.8
20260506081512 57 152 2.6 7.8 0.00 0.00 0.00 89 1011.7
20260506073106 58 134 2.6 8.7 0.00 0.00 0.00 89 1011.6
20260506071539 58 87 3.5 8.7 0.00 0.00 0.00 88 1011.6
20260506061601 58 120 3.5 7.8 0.00 0.00 0.00 87 1011.7
20260506044521 59 73 3.5 10.4 0.00 0.00 0.00 83 1012.4
20260506043104 59 16 2.6 8.7 0.00 0.00 0.00 83 1012.4
20260506041526 59 68 2.6 9.6 0.00 0.00 0.00 83 1012.3
20260506040108 59 141 4.3 9.6 0.00 0.00 0.00 83 1012.3
20260506034541 59 143 3.5 10.4 0.00 0.00 0.00 82 1012.3
20260506033006 59 169 5.2 10.4 0.00 0.00 0.00 82 1012.5
20260506031551 59 151 4.3 9.6 0.00 0.00 0.00 82 1012.3
20260506030020 59 113 3.5 9.6 0.00 0.00 0.00 81 1012.4
20260506024600 60 74 4.3 11.3 0.00 0.00 0.00 81 1012.6
20260506023026 60 51 2.6 8.7 0.00 0.00 0.00 80 1012.5
20260506021609 60 64 4.3 9.6 0.00 0.00 0.00 80 1012.6
20260506020039 60 179 3.5 10.4 0.00 0.00 0.00 80 1012.6
20260506014507 60 87 4.3 10.4 0.00 0.00 0.00 80 1012.3
20260506013054 60 72 2.6 10.4 0.00 0.00 0.00 80 1012.3
20260506011508 60 51 4.3 10.4 0.00 0.00 0.00 80 1012.2
20260506010037 59 74 4.3 8.7 0.00 0.00 0.00 81 1012.0
20260506004506 59 56 3.5 9.6 0.00 0.00 0.00 81 1011.8
20260506003045 59 172 2.6 7.8 0.00 0.00 0.00 81 1011.8
20260506001514 59 11 3.5 9.6 0.00 0.00 0.00 81 1011.8
20260506000054 60 65 2.6 10.4 0.00 0.00 0.00 80 1011.7
20260505234522 60 98 3.5 10.4 0.00 0.00 0.00 79 1011.6
20260505233100 61 122 4.3 11.3 0.00 0.00 0.00 77 1011.5
20260505231534 62 68 4.3 9.6 0.00 0.00 0.00 76 1011.6
20260505230003 62 160 3.5 12.2 0.00 0.00 0.00 74 1011.3
20260505224546 63 76 3.5 9.6 0.00 0.00 0.00 73 1011.3
20260505223019 63 156 4.3 13.0 0.00 0.00 0.00 73 1011.2
20260505221600 63 91 4.3 10.4 0.00 0.00 0.00 72 1011.4
20260505220030 63 195 3.5 10.4 0.00 0.00 0.00 72 1011.2
20260505214502 63 79 4.3 10.4 0.00 0.00 0.00 72 1010.9
20260505213043 63 117 3.5 8.7 0.00 0.00 0.00 71 1011.1
20260505211512 64 68 4.3 9.6 0.00 0.00 0.00 70 1010.9
20260505210055 65 37 4.3 10.4 0.00 0.00 0.00 69 1010.8
20260505204523 65 75 4.3 13.0 0.00 0.00 0.00 69 1010.7
20260505203108 65 81 4.3 12.2 0.00 0.00 0.00 69 1010.7
20260505201543 65 75 5.2 10.4 0.00 0.00 0.00 68 1010.9
20260505200016 66 106 4.3 12.2 0.00 0.00 0.00 68 1011.4
20260505194558 67 91 2.6 10.4 0.00 0.00 0.00 66 1011.3
20260505193027 67 83 3.5 11.3 0.00 0.00 0.00 66 1011.6
20260505191612 67 136 4.3 8.7 0.00 0.00 0.00 65 1012.0
20260505190046 68 112 3.5 9.6 0.00 0.00 0.00 65 1011.8